iso_date,Year,Hour,Min,DOY,POS_DOY,Lat,Lon,BP,Ts,Ta,has_bp,has_ts,has_ta,BuoyID,Buoy_Type,Buoy_Owner,Logistics,Hemisphere
2022-10-11T19:47:51Z,2022,19,47,284.8249,284.8249,57.73663,-152.5027,-999.0,10.0,-999.0,no,yes,no,300534062122830,IT,USIABP,SIZRS,North
2022-10-11T20:00:23Z,2022,20,0,284.8336,284.8336,57.73662,-152.5027,-999.0,11.0,-999.0,no,yes,no,300534062122830,IT,USIABP,SIZRS,North
2022-10-12T23:23:51Z,2022,23,23,285.9749,285.9749,75.19786,-149.88293,-999.0,15.4,-999.0,no,yes,no,300534062122830,IT,USIABP,SIZRS,North
2022-10-13T00:00:25Z,2022,0,0,286.0003,286.0003,75.1335,-149.84575,-999.0,14.15,-999.0,no,yes,no,300534062122830,IT,USIABP,SIZRS,North
2022-10-13T01:00:28Z,2022,1,0,286.042,286.042,75.13349,-149.82421,-999.0,10.65,-999.0,no,yes,no,300534062122830,IT,USIABP,SIZRS,North
2022-10-13T02:00:23Z,2022,2,0,286.0836,286.0836,75.13161,-149.80434,-999.0,7.85,-999.0,no,yes,no,300534062122830,IT,USIABP,SIZRS,North
2022-10-13T03:00:51Z,2022,3,0,286.1256,286.1256,75.13083,-149.78992,-999.0,5.8,-999.0,no,yes,no,300534062122830,IT,USIABP,SIZRS,North
2022-10-13T04:00:28Z,2022,4,0,286.167,286.167,75.13056,-149.78176,-999.0,4.25,-999.0,no,yes,no,300534062122830,IT,USIABP,SIZRS,North
2022-10-13T05:00:23Z,2022,5,0,286.2086,286.2086,75.12961,-149.77052,-999.0,3.15,-999.0,no,yes,no,300534062122830,IT,USIABP,SIZRS,North
2022-10-13T06:00:51Z,2022,6,0,286.2506,286.2506,75.12994,-149.76055,-999.0,2.3,-999.0,no,yes,no,300534062122830,IT,USIABP,SIZRS,North
2022-10-13T07:00:28Z,2022,7,0,286.292,286.292,75.13055,-149.74149,-999.0,1.6,-999.0,no,yes,no,300534062122830,IT,USIABP,SIZRS,North
2022-10-13T08:00:31Z,2022,8,0,286.3337,286.3337,75.13378,-149.7116,-999.0,1.05,-999.0,no,yes,no,300534062122830,IT,USIABP,SIZRS,North
2022-10-13T09:00:25Z,2022,9,0,286.3753,286.3753,75.13632,-149.67576,-999.0,0.5,-999.0,no,yes,no,300534062122830,IT,USIABP,SIZRS,North
2022-10-13T10:00:28Z,2022,10,0,286.417,286.417,75.1361,-149.63775,-999.0,0.1,-999.0,no,yes,no,300534062122830,IT,USIABP,SIZRS,North
2022-10-13T11:00:57Z,2022,11,0,286.459,286.459,75.13588,-149.59736,-999.0,-0.1,-999.0,no,yes,no,300534062122830,IT,USIABP,SIZRS,North
2022-10-13T12:00:25Z,2022,12,0,286.5003,286.5003,75.1326,-149.56757,-999.0,-0.45,-999.0,no,yes,no,300534062122830,IT,USIABP,SIZRS,North
2022-10-13T13:00:28Z,2022,13,0,286.542,286.542,75.1301,-149.53806,-999.0,-0.9,-999.0,no,yes,no,300534062122830,IT,USIABP,SIZRS,North
2022-10-13T14:00:57Z,2022,14,0,286.584,286.584,75.12874,-149.51194,-999.0,-1.2,-999.0,no,yes,no,300534062122830,IT,USIABP,SIZRS,North
2022-10-13T15:00:25Z,2022,15,0,286.6253,286.6253,75.12539,-149.48363,-999.0,-1.4,-999.0,no,yes,no,300534062122830,IT,USIABP,SIZRS,North
2022-10-13T16:00:28Z,2022,16,0,286.667,286.667,75.12218,-149.45862,-999.0,-1.65,-999.0,no,yes,no,300534062122830,IT,USIABP,SIZRS,North
2022-10-13T17:00:31Z,2022,17,0,286.7087,286.7087,75.11944,-149.43956,-999.0,-1.85,-999.0,no,yes,no,300534062122830,IT,USIABP,SIZRS,North
2022-10-13T18:00:51Z,2022,18,0,286.7506,286.7506,75.11577,-149.41476,-999.0,-2.2,-999.0,no,yes,no,300534062122830,IT,USIABP,SIZRS,North
2022-10-13T19:00:28Z,2022,19,0,286.792,286.792,75.11329,-149.38895,-999.0,-2.4,-999.0,no,yes,no,300534062122830,IT,USIABP,SIZRS,North
2022-10-13T20:00:23Z,2022,20,0,286.8336,286.8336,75.11264,-149.36438,-999.0,-2.5,-999.0,no,yes,no,300534062122830,IT,USIABP,SIZRS,North
2022-10-13T21:00:25Z,2022,21,0,286.8753,286.8753,75.11149,-149.33276,-999.0,-2.6,-999.0,no,yes,no,300534062122830,IT,USIABP,SIZRS,North
2022-10-13T22:00:54Z,2022,22,0,286.9173,286.9173,75.10966,-149.29842,-999.0,-2.75,-999.0,no,yes,no,300534062122830,IT,USIABP,SIZRS,North
2022-10-13T23:00:23Z,2022,23,0,286.9586,286.9586,75.10629,-149.26122,-999.0,-2.85,-999.0,no,yes,no,300534062122830,IT,USIABP,SIZRS,North
2022-10-14T00:00:25Z,2022,0,0,287.0003,287.0003,75.10236,-149.22347,-999.0,-2.85,-999.0,no,yes,no,300534062122830,IT,USIABP,SIZRS,North
2022-10-14T01:00:28Z,2022,1,0,287.042,287.042,75.09728,-149.1856,-999.0,-3.05,-999.0,no,yes,no,300534062122830,IT,USIABP,SIZRS,North
2022-10-14T02:00:57Z,2022,2,0,287.084,287.084,75.09122,-149.15054,-999.0,-3.1,-999.0,no,yes,no,300534062122830,IT,USIABP,SIZRS,North
2022-10-14T03:00:25Z,2022,3,0,287.1253,287.1253,75.08482,-149.11558,-999.0,-3.2,-999.0,no,yes,no,300534062122830,IT,USIABP,SIZRS,North
2022-10-14T04:00:28Z,2022,4,0,287.167,287.167,75.07775,-149.07817,-999.0,-3.25,-999.0,no,yes,no,300534062122830,IT,USIABP,SIZRS,North
2022-10-14T05:00:57Z,2022,5,0,287.209,287.209,75.07016,-149.04687,-999.0,-3.5,-999.0,no,yes,no,300534062122830,IT,USIABP,SIZRS,North
2022-10-14T06:00:25Z,2022,6,0,287.2503,287.2503,75.06393,-149.02034,-999.0,-3.65,-999.0,no,yes,no,300534062122830,IT,USIABP,SIZRS,North
2022-10-14T07:00:28Z,2022,7,0,287.292,287.292,75.05875,-148.99478,-999.0,-3.8,-999.0,no,yes,no,300534062122830,IT,USIABP,SIZRS,North
2022-10-14T08:00:57Z,2022,8,0,287.334,287.334,75.05467,-148.96919,-999.0,-3.95,-999.0,no,yes,no,300534062122830,IT,USIABP,SIZRS,North
2022-10-14T09:00:25Z,2022,9,0,287.3753,287.3753,75.05151,-148.94312,-999.0,-4.05,-999.0,no,yes,no,300534062122830,IT,USIABP,SIZRS,North
2022-10-14T10:00:28Z,2022,10,0,287.417,287.417,75.04808,-148.91319,-999.0,-4.2,-999.0,no,yes,no,300534062122830,IT,USIABP,SIZRS,North
2022-10-14T11:00:57Z,2022,11,0,287.459,287.459,75.04418,-148.87929,-999.0,-4.3,-999.0,no,yes,no,300534062122830,IT,USIABP,SIZRS,North
2022-10-14T12:00:25Z,2022,12,0,287.5003,287.5003,75.03959,-148.84322,-999.0,-4.4,-999.0,no,yes,no,300534062122830,IT,USIABP,SIZRS,North
2022-10-14T13:00:28Z,2022,13,0,287.542,287.542,75.03493,-148.80767,-999.0,-4.45,-999.0,no,yes,no,300534062122830,IT,USIABP,SIZRS,North
2022-10-14T14:00:57Z,2022,14,0,287.584,287.584,75.0291,-148.77793,-999.0,-4.3,-999.0,no,yes,no,300534062122830,IT,USIABP,SIZRS,North
2022-10-14T15:00:25Z,2022,15,0,287.6253,287.6253,75.02289,-148.75193,-999.0,-4.3,-999.0,no,yes,no,300534062122830,IT,USIABP,SIZRS,North
2022-10-14T16:00:28Z,2022,16,0,287.667,287.667,75.01657,-148.72994,-999.0,-4.3,-999.0,no,yes,no,300534062122830,IT,USIABP,SIZRS,North
2022-10-14T17:00:23Z,2022,17,0,287.7086,287.7086,75.01066,-148.71188,-999.0,-4.3,-999.0,no,yes,no,300534062122830,IT,USIABP,SIZRS,North
2022-10-14T18:00:51Z,2022,18,0,287.7506,287.7506,75.00639,-148.69441,-999.0,-4.4,-999.0,no,yes,no,300534062122830,IT,USIABP,SIZRS,North
2022-10-14T19:00:28Z,2022,19,0,287.792,287.792,75.002,-148.67492,-999.0,-4.4,-999.0,no,yes,no,300534062122830,IT,USIABP,SIZRS,North
2022-10-14T20:00:23Z,2022,20,0,287.8336,287.8336,74.99775,-148.65902,-999.0,-4.3,-999.0,no,yes,no,300534062122830,IT,USIABP,SIZRS,North
2022-10-14T21:00:25Z,2022,21,0,287.8753,287.8753,74.99418,-148.64264,-999.0,-4.25,-999.0,no,yes,no,300534062122830,IT,USIABP,SIZRS,North
2022-10-14T22:00:54Z,2022,22,0,287.9173,287.9173,74.99129,-148.6226,-999.0,-4.1,-999.0,no,yes,no,300534062122830,IT,USIABP,SIZRS,North
2022-10-14T23:00:23Z,2022,23,0,287.9586,287.9586,74.98833,-148.59832,-999.0,-3.95,-999.0,no,yes,no,300534062122830,IT,USIABP,SIZRS,North
2022-10-15T00:00:25Z,2022,0,0,288.0003,288.0003,74.98424,-148.57254,-999.0,-4.0,-999.0,no,yes,no,300534062122830,IT,USIABP,SIZRS,North
2022-10-15T01:00:28Z,2022,1,0,288.042,288.042,74.98008,-148.54967,-999.0,-3.9,-999.0,no,yes,no,300534062122830,IT,USIABP,SIZRS,North
2022-10-15T02:00:57Z,2022,2,0,288.084,288.084,74.9749,-148.52709,-999.0,-4.0,-999.0,no,yes,no,300534062122830,IT,USIABP,SIZRS,North
2022-10-15T03:00:25Z,2022,3,0,288.1253,288.1253,74.96927,-148.51099,-999.0,-4.1,-999.0,no,yes,no,300534062122830,IT,USIABP,SIZRS,North
2022-10-15T04:00:28Z,2022,4,0,288.167,288.167,74.96413,-148.4988,-999.0,-4.25,-999.0,no,yes,no,300534062122830,IT,USIABP,SIZRS,North
2022-10-15T05:00:57Z,2022,5,0,288.209,288.209,74.96015,-148.48992,-999.0,-4.3,-999.0,no,yes,no,300534062122830,IT,USIABP,SIZRS,North
2022-10-15T06:00:25Z,2022,6,0,288.2503,288.2503,74.95667,-148.48305,-999.0,-4.45,-999.0,no,yes,no,300534062122830,IT,USIABP,SIZRS,North
2022-10-15T07:00:28Z,2022,7,0,288.292,288.292,74.95396,-148.47706,-999.0,-4.5,-999.0,no,yes,no,300534062122830,IT,USIABP,SIZRS,North
2022-10-15T08:00:57Z,2022,8,0,288.334,288.334,74.95255,-148.46944,-999.0,-4.75,-999.0,no,yes,no,300534062122830,IT,USIABP,SIZRS,North
2022-10-15T09:00:25Z,2022,9,0,288.3753,288.3753,74.95193,-148.45854,-999.0,-4.85,-999.0,no,yes,no,300534062122830,IT,USIABP,SIZRS,North
2022-10-15T10:00:28Z,2022,10,0,288.417,288.417,74.95175,-148.44338,-999.0,-4.9,-999.0,no,yes,no,300534062122830,IT,USIABP,SIZRS,North
2022-10-15T11:00:57Z,2022,11,0,288.459,288.459,74.9511,-148.42696,-999.0,-4.9,-999.0,no,yes,no,300534062122830,IT,USIABP,SIZRS,North
2022-10-15T12:00:25Z,2022,12,0,288.5003,288.5003,74.95014,-148.41046,-999.0,-4.85,-999.0,no,yes,no,300534062122830,IT,USIABP,SIZRS,North
2022-10-15T13:00:28Z,2022,13,0,288.542,288.542,74.94812,-148.39389,-999.0,-4.85,-999.0,no,yes,no,300534062122830,IT,USIABP,SIZRS,North
2022-10-15T14:00:57Z,2022,14,0,288.584,288.584,74.94612,-148.37926,-999.0,-4.8,-999.0,no,yes,no,300534062122830,IT,USIABP,SIZRS,North
2022-10-15T15:00:25Z,2022,15,0,288.6253,288.6253,74.94438,-148.36986,-999.0,-4.75,-999.0,no,yes,no,300534062122830,IT,USIABP,SIZRS,North
2022-10-15T16:00:28Z,2022,16,0,288.667,288.667,74.94298,-148.36594,-999.0,-4.8,-999.0,no,yes,no,300534062122830,IT,USIABP,SIZRS,North
2022-10-15T17:00:23Z,2022,17,0,288.7086,288.7086,74.94218,-148.36787,-999.0,-4.9,-999.0,no,yes,no,300534062122830,IT,USIABP,SIZRS,North
2022-10-15T18:00:51Z,2022,18,0,288.7506,288.7506,74.94234,-148.3733,-999.0,-5.1,-999.0,no,yes,no,300534062122830,IT,USIABP,SIZRS,North
2022-10-15T19:00:28Z,2022,19,0,288.792,288.792,74.9436,-148.37926,-999.0,-5.15,-999.0,no,yes,no,300534062122830,IT,USIABP,SIZRS,North
2022-10-15T20:00:23Z,2022,20,0,288.8336,288.8336,74.94613,-148.38366,-999.0,-5.2,-999.0,no,yes,no,300534062122830,IT,USIABP,SIZRS,North
2022-10-15T21:00:25Z,2022,21,0,288.8753,288.8753,74.95018,-148.38536,-999.0,-5.1,-999.0,no,yes,no,300534062122830,IT,USIABP,SIZRS,North
2022-10-15T22:00:54Z,2022,22,0,288.9173,288.9173,74.95522,-148.3845,-999.0,-4.75,-999.0,no,yes,no,300534062122830,IT,USIABP,SIZRS,North
2022-10-15T23:00:23Z,2022,23,0,288.9586,288.9586,74.96036,-148.38054,-999.0,-4.6,-999.0,no,yes,no,300534062122830,IT,USIABP,SIZRS,North
2022-10-16T00:00:25Z,2022,0,0,289.0003,289.0003,74.96437,-148.37415,-999.0,-4.45,-999.0,no,yes,no,300534062122830,IT,USIABP,SIZRS,North
2022-10-16T01:00:28Z,2022,1,0,289.042,289.042,74.96709,-148.36629,-999.0,-4.35,-999.0,no,yes,no,300534062122830,IT,USIABP,SIZRS,North
2022-10-16T02:00:57Z,2022,2,0,289.084,289.084,74.96869,-148.35948,-999.0,-4.25,-999.0,no,yes,no,300534062122830,IT,USIABP,SIZRS,North
2022-10-16T03:00:25Z,2022,3,0,289.1253,289.1253,74.97012,-148.35577,-999.0,-4.35,-999.0,no,yes,no,300534062122830,IT,USIABP,SIZRS,North
2022-10-16T04:00:28Z,2022,4,0,289.167,289.167,74.97211,-148.35551,-999.0,-4.3,-999.0,no,yes,no,300534062122830,IT,USIABP,SIZRS,North
2022-10-16T05:00:57Z,2022,5,0,289.209,289.209,74.9746,-148.35965,-999.0,-4.3,-999.0,no,yes,no,300534062122830,IT,USIABP,SIZRS,North
2022-10-16T06:00:25Z,2022,6,0,289.2503,289.2503,74.97776,-148.36565,-999.0,-4.2,-999.0,no,yes,no,300534062122830,IT,USIABP,SIZRS,North
2022-10-16T07:00:28Z,2022,7,0,289.292,289.292,74.9816,-148.37114,-999.0,-4.2,-999.0,no,yes,no,300534062122830,IT,USIABP,SIZRS,North
2022-10-16T08:00:57Z,2022,8,0,289.334,289.334,74.98653,-148.37342,-999.0,-4.25,-999.0,no,yes,no,300534062122830,IT,USIABP,SIZRS,North
2022-10-16T09:00:25Z,2022,9,0,289.3753,289.3753,74.99142,-148.37074,-999.0,-4.35,-999.0,no,yes,no,300534062122830,IT,USIABP,SIZRS,North
2022-10-16T10:00:28Z,2022,10,0,289.417,289.417,74.99598,-148.36337,-999.0,-4.4,-999.0,no,yes,no,300534062122830,IT,USIABP,SIZRS,North
2022-10-16T11:00:57Z,2022,11,0,289.459,289.459,74.99969,-148.35214,-999.0,-4.3,-999.0,no,yes,no,300534062122830,IT,USIABP,SIZRS,North
2022-10-16T12:00:25Z,2022,12,0,289.5003,289.5003,75.00251,-148.33954,-999.0,-4.05,-999.0,no,yes,no,300534062122830,IT,USIABP,SIZRS,North
2022-10-16T13:00:28Z,2022,13,0,289.542,289.542,75.00488,-148.32479,-999.0,-3.9,-999.0,no,yes,no,300534062122830,IT,USIABP,SIZRS,North
2022-10-16T14:00:57Z,2022,14,0,289.584,289.584,75.00714,-148.31162,-999.0,-3.75,-999.0,no,yes,no,300534062122830,IT,USIABP,SIZRS,North
2022-10-16T15:00:25Z,2022,15,0,289.6253,289.6253,75.00959,-148.30497,-999.0,-3.6,-999.0,no,yes,no,300534062122830,IT,USIABP,SIZRS,North
2022-10-16T16:00:28Z,2022,16,0,289.667,289.667,75.01289,-148.30559,-999.0,-3.65,-999.0,no,yes,no,300534062122830,IT,USIABP,SIZRS,North
2022-10-16T17:00:57Z,2022,17,0,289.709,289.709,75.01666,-148.31214,-999.0,-3.8,-999.0,no,yes,no,300534062122830,IT,USIABP,SIZRS,North
2022-10-16T18:00:25Z,2022,18,0,289.7503,289.7503,75.02114,-148.32495,-999.0,-4.0,-999.0,no,yes,no,300534062122830,IT,USIABP,SIZRS,North
2022-10-16T19:00:28Z,2022,19,0,289.792,289.792,75.02688,-148.34044,-999.0,-4.25,-999.0,no,yes,no,300534062122830,IT,USIABP,SIZRS,North
2022-10-16T20:00:57Z,2022,20,0,289.834,289.834,75.03336,-148.35314,-999.0,-4.35,-999.0,no,yes,no,300534062122830,IT,USIABP,SIZRS,North
2022-10-16T21:00:25Z,2022,21,0,289.8753,289.8753,75.03983,-148.3629,-999.0,-4.35,-999.0,no,yes,no,300534062122830,IT,USIABP,SIZRS,North
2022-10-16T22:00:28Z,2022,22,0,289.917,289.917,75.0459,-148.37006,-999.0,-4.3,-999.0,no,yes,no,300534062122830,IT,USIABP,SIZRS,North
2022-10-16T23:00:31Z,2022,23,0,289.9587,289.9587,75.05082,-148.37598,-999.0,-4.25,-999.0,no,yes,no,300534062122830,IT,USIABP,SIZRS,North
2022-10-17T00:00:51Z,2022,0,0,290.0006,290.0006,75.05494,-148.38336,-999.0,-4.25,-999.0,no,yes,no,300534062122830,IT,USIABP,SIZRS,North
2022-10-17T01:00:28Z,2022,1,0,290.042,290.042,75.05864,-148.39276,-999.0,-4.35,-999.0,no,yes,no,300534062122830,IT,USIABP,SIZRS,North
2022-10-17T02:00:23Z,2022,2,0,290.0836,290.0836,75.06196,-148.40686,-999.0,-4.75,-999.0,no,yes,no,300534062122830,IT,USIABP,SIZRS,North
2022-10-17T03:00:51Z,2022,3,0,290.1256,290.1256,75.06575,-148.42837,-999.0,-5.35,-999.0,no,yes,no,300534062122830,IT,USIABP,SIZRS,North
2022-10-17T04:00:28Z,2022,4,0,290.167,290.167,75.07035,-148.45387,-999.0,-5.75,-999.0,no,yes,no,300534062122830,IT,USIABP,SIZRS,North
2022-10-17T05:00:23Z,2022,5,0,290.2086,290.2086,75.07632,-148.47986,-999.0,-6.15,-999.0,no,yes,no,300534062122830,IT,USIABP,SIZRS,North
2022-10-17T06:00:51Z,2022,6,0,290.2506,290.2506,75.08297,-148.50423,-999.0,-6.4,-999.0,no,yes,no,300534062122830,IT,USIABP,SIZRS,North
2022-10-17T07:00:28Z,2022,7,0,290.292,290.292,75.08948,-148.52565,-999.0,-6.7,-999.0,no,yes,no,300534062122830,IT,USIABP,SIZRS,North
2022-10-17T08:00:23Z,2022,8,0,290.3336,290.3336,75.09528,-148.54562,-999.0,-6.95,-999.0,no,yes,no,300534062122830,IT,USIABP,SIZRS,North
2022-10-17T09:00:25Z,2022,9,0,290.3753,290.3753,75.10085,-148.56688,-999.0,-7.15,-999.0,no,yes,no,300534062122830,IT,USIABP,SIZRS,North
2022-10-17T10:00:54Z,2022,10,0,290.4173,290.4173,75.10551,-148.58876,-999.0,-7.35,-999.0,no,yes,no,300534062122830,IT,USIABP,SIZRS,North
2022-10-17T11:00:23Z,2022,11,0,290.4586,290.4586,75.109,-148.61395,-999.0,-7.55,-999.0,no,yes,no,300534062122830,IT,USIABP,SIZRS,North
2022-10-17T12:00:25Z,2022,12,0,290.5003,290.5003,75.11193,-148.64081,-999.0,-7.7,-999.0,no,yes,no,300534062122830,IT,USIABP,SIZRS,North
2022-10-17T13:00:28Z,2022,13,0,290.542,290.542,75.11445,-148.66818,-999.0,-7.85,-999.0,no,yes,no,300534062122830,IT,USIABP,SIZRS,North
2022-10-17T14:00:57Z,2022,14,0,290.584,290.584,75.11661,-148.69832,-999.0,-7.9,-999.0,no,yes,no,300534062122830,IT,USIABP,SIZRS,North
2022-10-17T15:00:25Z,2022,15,0,290.6253,290.6253,75.11822,-148.72993,-999.0,-8.05,-999.0,no,yes,no,300534062122830,IT,USIABP,SIZRS,North
2022-10-17T16:00:28Z,2022,16,0,290.667,290.667,75.11982,-148.7655,-999.0,-8.25,-999.0,no,yes,no,300534062122830,IT,USIABP,SIZRS,North
2022-10-17T17:00:57Z,2022,17,0,290.709,290.709,75.12136,-148.80445,-999.0,-8.4,-999.0,no,yes,no,300534062122830,IT,USIABP,SIZRS,North
2022-10-17T18:00:25Z,2022,18,0,290.7503,290.7503,75.12282,-148.84485,-999.0,-8.6,-999.0,no,yes,no,300534062122830,IT,USIABP,SIZRS,North
2022-10-17T19:00:28Z,2022,19,0,290.792,290.792,75.12472,-148.8873,-999.0,-8.75,-999.0,no,yes,no,300534062122830,IT,USIABP,SIZRS,North
2022-10-17T20:00:57Z,2022,20,0,290.834,290.834,75.12693,-148.92939,-999.0,-8.85,-999.0,no,yes,no,300534062122830,IT,USIABP,SIZRS,North
2022-10-17T21:00:25Z,2022,21,0,290.8753,290.8753,75.12929,-148.97103,-999.0,-8.75,-999.0,no,yes,no,300534062122830,IT,USIABP,SIZRS,North
2022-10-17T22:00:28Z,2022,22,0,290.917,290.917,75.13139,-149.00957,-999.0,-8.55,-999.0,no,yes,no,300534062122830,IT,USIABP,SIZRS,North
2022-10-17T23:00:23Z,2022,23,0,290.9586,290.9586,75.13254,-149.04457,-999.0,-8.4,-999.0,no,yes,no,300534062122830,IT,USIABP,SIZRS,North
2022-10-18T00:00:51Z,2022,0,0,291.0006,291.0006,75.13286,-149.07609,-999.0,-8.1,-999.0,no,yes,no,300534062122830,IT,USIABP,SIZRS,North
2022-10-18T01:00:28Z,2022,1,0,291.042,291.042,75.13209,-149.1051,-999.0,-7.8,-999.0,no,yes,no,300534062122830,IT,USIABP,SIZRS,North
2022-10-18T02:00:23Z,2022,2,0,291.0836,291.0836,75.13053,-149.13584,-999.0,-8.0,-999.0,no,yes,no,300534062122830,IT,USIABP,SIZRS,North
2022-10-18T03:00:51Z,2022,3,0,291.1256,291.1256,75.12845,-149.17126,-999.0,-8.3,-999.0,no,yes,no,300534062122830,IT,USIABP,SIZRS,North
2022-10-18T04:00:28Z,2022,4,0,291.167,291.167,75.12642,-149.21107,-999.0,-8.35,-999.0,no,yes,no,300534062122830,IT,USIABP,SIZRS,North
2022-10-18T05:00:23Z,2022,5,0,291.2086,291.2086,75.12482,-149.25495,-999.0,-8.35,-999.0,no,yes,no,300534062122830,IT,USIABP,SIZRS,North
2022-10-18T06:00:51Z,2022,6,0,291.2506,291.2506,75.12378,-149.30013,-999.0,-8.45,-999.0,no,yes,no,300534062122830,IT,USIABP,SIZRS,North
2022-10-18T07:00:28Z,2022,7,0,291.292,291.292,75.12329,-149.34429,-999.0,-8.55,-999.0,no,yes,no,300534062122830,IT,USIABP,SIZRS,North
2022-10-18T08:00:23Z,2022,8,0,291.3336,291.3336,75.12284,-149.38755,-999.0,-8.7,-999.0,no,yes,no,300534062122830,IT,USIABP,SIZRS,North
2022-10-18T09:00:25Z,2022,9,0,291.3753,291.3753,75.1226,-149.42895,-999.0,-8.6,-999.0,no,yes,no,300534062122830,IT,USIABP,SIZRS,North
2022-10-18T10:00:54Z,2022,10,0,291.4173,291.4173,75.1222,-149.46646,-999.0,-8.45,-999.0,no,yes,no,300534062122830,IT,USIABP,SIZRS,North
2022-10-18T11:00:23Z,2022,11,0,291.4586,291.4586,75.12103,-149.49758,-999.0,-8.3,-999.0,no,yes,no,300534062122830,IT,USIABP,SIZRS,North
2022-10-18T12:00:25Z,2022,12,0,291.5003,291.5003,75.11908,-149.52558,-999.0,-8.2,-999.0,no,yes,no,300534062122830,IT,USIABP,SIZRS,North
2022-10-18T13:00:28Z,2022,13,0,291.542,291.542,75.11649,-149.55291,-999.0,-8.05,-999.0,no,yes,no,300534062122830,IT,USIABP,SIZRS,North
2022-10-18T14:00:57Z,2022,14,0,291.584,291.584,75.11358,-149.57968,-999.0,-8.0,-999.0,no,yes,no,300534062122830,IT,USIABP,SIZRS,North
2022-10-18T15:00:25Z,2022,15,0,291.6253,291.6253,75.1103,-149.60628,-999.0,-8.0,-999.0,no,yes,no,300534062122830,IT,USIABP,SIZRS,North
2022-10-18T16:00:28Z,2022,16,0,291.667,291.667,75.10723,-149.63292,-999.0,-8.15,-999.0,no,yes,no,300534062122830,IT,USIABP,SIZRS,North
2022-10-18T17:00:31Z,2022,17,0,291.7087,291.7087,75.10439,-149.66102,-999.0,-8.4,-999.0,no,yes,no,300534062122830,IT,USIABP,SIZRS,North
2022-10-18T18:00:51Z,2022,18,0,291.7506,291.7506,75.10157,-149.69079,-999.0,-8.55,-999.0,no,yes,no,300534062122830,IT,USIABP,SIZRS,North
2022-10-18T19:00:28Z,2022,19,0,291.792,291.792,75.09914,-149.72119,-999.0,-8.5,-999.0,no,yes,no,300534062122830,IT,USIABP,SIZRS,North
2022-10-18T20:00:23Z,2022,20,0,291.8336,291.8336,75.09736,-149.75033,-999.0,-8.4,-999.0,no,yes,no,300534062122830,IT,USIABP,SIZRS,North
2022-10-18T21:00:25Z,2022,21,0,291.8753,291.8753,75.09608,-149.7761,-999.0,-8.3,-999.0,no,yes,no,300534062122830,IT,USIABP,SIZRS,North
2022-10-18T22:00:54Z,2022,22,0,291.9173,291.9173,75.09502,-149.79696,-999.0,-8.2,-999.0,no,yes,no,300534062122830,IT,USIABP,SIZRS,North
2022-10-18T23:00:23Z,2022,23,0,291.9586,291.9586,75.09431,-149.81361,-999.0,-8.0,-999.0,no,yes,no,300534062122830,IT,USIABP,SIZRS,North
2022-10-19T00:00:25Z,2022,0,0,292.0003,292.0003,75.09347,-149.82921,-999.0,-7.75,-999.0,no,yes,no,300534062122830,IT,USIABP,SIZRS,North
2022-10-19T01:00:28Z,2022,1,0,292.042,292.042,75.09249,-149.84441,-999.0,-7.65,-999.0,no,yes,no,300534062122830,IT,USIABP,SIZRS,North
2022-10-19T02:00:57Z,2022,2,0,292.084,292.084,75.09142,-149.86075,-999.0,-7.45,-999.0,no,yes,no,300534062122830,IT,USIABP,SIZRS,North
2022-10-19T03:00:25Z,2022,3,0,292.1253,292.1253,75.09016,-149.87947,-999.0,-7.35,-999.0,no,yes,no,300534062122830,IT,USIABP,SIZRS,North
2022-10-19T04:00:28Z,2022,4,0,292.167,292.167,75.08894,-149.90074,-999.0,-7.25,-999.0,no,yes,no,300534062122830,IT,USIABP,SIZRS,North
2022-10-19T05:00:23Z,2022,5,0,292.2086,292.2086,75.08799,-149.92234,-999.0,-7.15,-999.0,no,yes,no,300534062122830,IT,USIABP,SIZRS,North
2022-10-19T06:00:51Z,2022,6,0,292.2506,292.2506,75.08776,-149.9442,-999.0,-7.05,-999.0,no,yes,no,300534062122830,IT,USIABP,SIZRS,North
2022-10-19T07:00:28Z,2022,7,0,292.292,292.292,75.0884,-149.96397,-999.0,-6.9,-999.0,no,yes,no,300534062122830,IT,USIABP,SIZRS,North
2022-10-19T08:00:23Z,2022,8,0,292.3336,292.3336,75.08971,-149.98091,-999.0,-6.75,-999.0,no,yes,no,300534062122830,IT,USIABP,SIZRS,North
2022-10-19T09:00:51Z,2022,9,0,292.3756,292.3756,75.09131,-149.9943,-999.0,-6.6,-999.0,no,yes,no,300534062122830,IT,USIABP,SIZRS,North
2022-10-19T10:00:28Z,2022,10,0,292.417,292.417,75.09302,-150.00599,-999.0,-6.45,-999.0,no,yes,no,300534062122830,IT,USIABP,SIZRS,North
2022-10-19T11:00:23Z,2022,11,0,292.4586,292.4586,75.09467,-150.01596,-999.0,-6.35,-999.0,no,yes,no,300534062122830,IT,USIABP,SIZRS,North
2022-10-19T12:00:51Z,2022,12,0,292.5006,292.5006,75.09616,-150.02473,-999.0,-6.2,-999.0,no,yes,no,300534062122830,IT,USIABP,SIZRS,North
2022-10-19T13:00:28Z,2022,13,0,292.542,292.542,75.09743,-150.03318,-999.0,-6.05,-999.0,no,yes,no,300534062122830,IT,USIABP,SIZRS,North
2022-10-19T14:00:23Z,2022,14,0,292.5836,292.5836,75.09847,-150.04292,-999.0,-5.95,-999.0,no,yes,no,300534062122830,IT,USIABP,SIZRS,North
2022-10-19T15:00:51Z,2022,15,0,292.6256,292.6256,75.09932,-150.05512,-999.0,-5.9,-999.0,no,yes,no,300534062122830,IT,USIABP,SIZRS,North
2022-10-19T16:00:28Z,2022,16,0,292.667,292.667,75.10016,-150.06992,-999.0,-5.75,-999.0,no,yes,no,300534062122830,IT,USIABP,SIZRS,North
2022-10-19T17:00:23Z,2022,17,0,292.7086,292.7086,75.10159,-150.08671,-999.0,-5.7,-999.0,no,yes,no,300534062122830,IT,USIABP,SIZRS,North
2022-10-19T18:00:51Z,2022,18,0,292.7506,292.7506,75.10377,-150.10466,-999.0,-5.6,-999.0,no,yes,no,300534062122830,IT,USIABP,SIZRS,North
2022-10-19T19:00:28Z,2022,19,0,292.792,292.792,75.10643,-150.12265,-999.0,-5.45,-999.0,no,yes,no,300534062122830,IT,USIABP,SIZRS,North
2022-10-19T20:00:23Z,2022,20,0,292.8336,292.8336,75.10942,-150.13917,-999.0,-5.35,-999.0,no,yes,no,300534062122830,IT,USIABP,SIZRS,North
2022-10-19T21:00:25Z,2022,21,0,292.8753,292.8753,75.11262,-150.15331,-999.0,-5.2,-999.0,no,yes,no,300534062122830,IT,USIABP,SIZRS,North
2022-10-19T22:00:54Z,2022,22,0,292.9173,292.9173,75.11584,-150.16644,-999.0,-5.15,-999.0,no,yes,no,300534062122830,IT,USIABP,SIZRS,North
2022-10-19T23:00:23Z,2022,23,0,292.9586,292.9586,75.11873,-150.17733,-999.0,-5.05,-999.0,no,yes,no,300534062122830,IT,USIABP,SIZRS,North
2022-10-20T00:00:25Z,2022,0,0,293.0003,293.0003,75.12101,-150.18716,-999.0,-5.0,-999.0,no,yes,no,300534062122830,IT,USIABP,SIZRS,North
2022-10-20T01:00:46Z,2022,1,0,293.0422,293.0422,75.12318,-150.19748,-999.0,-4.9,-999.0,no,yes,no,300534062122830,IT,USIABP,SIZRS,North
2022-10-20T02:00:23Z,2022,2,0,293.0836,293.0836,75.12511,-150.20962,-999.0,-4.85,-999.0,no,yes,no,300534062122830,IT,USIABP,SIZRS,North
2022-10-20T03:00:25Z,2022,3,0,293.1253,293.1253,75.127,-150.22541,-999.0,-4.75,-999.0,no,yes,no,300534062122830,IT,USIABP,SIZRS,North
2022-10-20T04:00:54Z,2022,4,0,293.1673,293.1673,75.12924,-150.24632,-999.0,-4.55,-999.0,no,yes,no,300534062122830,IT,USIABP,SIZRS,North